User: anonymous   Login
Location: Newark
(48.8481°N, 20.9372°E)
Time: 04:29:14
(UTC+00:00)
Language:

NOAA 19 - Orbit

View from above orbital plane
View from above orbital plane
View from above satellite
View from above satellite

Ground track
Ground track

The orbit data is extracted from the following two-line orbital elements,

1 33591U 09005A   20092.16360381 +.00000032 +00000-0 +42631-4 0  9991
2 33591 099.1971 095.4965 0013032 294.3539 065.6271 14.12400752574224
Epoch (UTC): 01 April 2020 03:55:35
Eccentricity: 0.0013032
inclination: 99.1971°
perigee height: 842 km
apogee height: 860 km
right ascension of ascending node: 95.4965°
argument of perigee: 294.3539°
revolutions per day: 14.12400752
mean anomaly at epoch: 65.6271°
orbit number at epoch: 57422

The dashed part of the orbit path shows where the satellite is in the earth's shadow,  

DLR